#timestamp,LO_Frequency,Hit,StdDev 
1554879615.6,286046997.7,N
1554879635.4,286046997.7,N
1554879655.3,286046996.5,N
1554879675.1,286046997.2,N
1554879695.8,286046996.5,N
1554879715.7,286046997.4,N
1554879735.5,286046999.6,N
1554879755.4,286046997.1,N
1554879775.2,286046997.1,N
1554879795.0,286046995.3,N
1554879795.9,286046995.3,N
1554879815.8,286046996.2,N
1554879835.6,286046995.6,N
1554879855.4,286046994.4,N
1554879875.3,286046992.1,Y
1554879895.1,286046994.6,P
1554879915.9,286046991.7,P
1554879935.7,286046993.7,N
1554879955.5,286046996.1,N
1554879975.4,286046995.0,N
1554879995.2,286046995.6,N
1554880015.1,286046997.2,N
1554880016.0,286046997.2,N
1554880035.8,286046999.4,N
1554880055.6,286046998.3,N
1554880075.5,286046997.0,N
1554880095.3,286046997.0,N
1554880115.1,286046997.7,N
1554880135.9,286046996.9,N
1554880155.7,286046996.7,N
1554880175.6,286046997.8,N
1554880195.4,286046998.0,N
1554880215.2,286046995.6,N
1554880235.1,286046995.6,N
1554880236.0,286046995.6,N
1554880255.8,286046998.0,N
1554880275.6,286046999.4,N
1554880295.5,286046996.5,N
1554880315.3,286046997.2,N
1554880335.2,286046999.1,N
1554880355.9,286046996.5,N
1554880375.7,286046996.5,N
1554880395.6,286046996.7,N
1554880415.4,286046996.9,N
1554880435.2,286046998.9,N
1554880455.1,286046996.6,N
1554880456.0,286046996.6,N
1554880475.8,286046996.9,N
1554880495.7,286046997.0,N
1554880515.5,286046999.2,N
1554880535.3,286046998.3,N
1554880555.2,286046998.4,N
1554880575.0,286047000.8,N
1554880575.9,286047000.8,N
1554880595.8,286046998.1,N
1554880615.6,286046999.9,N
1554880635.4,286047000.5,N
1554880655.3,286046998.9,N
1554880675.1,286046998.9,N
1554880695.8,286046999.3,N
1554880715.7,286046997.2,N
1554880735.5,286046995.6,N
1554880755.4,286046997.0,N
1554880775.2,286046997.1,N
1554880795.0,286046996.6,N
1554880795.9,286046996.6,N
1554880815.8,286047001.0,N
1554880835.6,286047000.8,N
1554880855.4,286046999.9,N
1554880875.3,286047001.0,N
1554880895.1,286046998.6,N
1554880915.9,286046999.9,N
1554880935.7,286047000.9,N
1554880955.5,286046999.9,N
1554880975.4,286046998.1,N
1554880995.2,286046998.8,N
1554881015.0,286047001.2,N
1554881015.9,286047001.2,N
1554881035.8,286047000.9,N
1554881055.6,286047000.3,N
1554881075.5,286046998.5,N
1554881095.3,286047000.0,N
1554881115.1,286047000.0,N
1554881135.9,286047000.3,N
1554881155.7,286046999.9,N
1554881175.5,286046999.7,N
1554881195.4,286047001.1,N
1554881215.2,286047001.0,N
1554881235.1,286046999.7,N
1554881236.0,286046999.7,N
1554881255.8,286047002.8,N
1554881275.6,286047002.4,N
1554881295.5,286047002.0,N
1554881315.3,286047002.5,N
1554881335.1,286047002.0,N
1554881355.9,286047002.2,N
1554881375.7,286046999.8,N
1554881395.6,286047000.4,N
1554881415.4,286047000.9,N
1554881435.2,286047000.5,N
1554881455.1,286047000.1,N
1554881456.0,286047000.1,N
1554881475.8,286047002.8,N
1554881495.7,286047002.0,N
1554881515.5,286047001.6,N
1554881535.3,286047002.1,N
1554881555.2,286047002.1,N
1554881575.0,286047002.8,N
1554881575.9,286047002.8,N
1554881595.8,286046999.7,N
1554881615.6,286047000.1,N
1554881635.4,286047000.3,N
1554881655.3,286047000.1,N
1554881675.1,286047000.7,N
1554881695.8,286047000.4,N
1554881715.7,286047001.5,N
1554881735.5,286047000.0,N
1554881755.3,286047000.3,N
1554881775.2,286047001.0,N
1554881795.0,286046998.3,N
1554881795.9,286046998.3,N
1554881815.8,286046998.2,N
1554881835.6,286047000.5,N
1554881855.4,286047000.1,N
1554881875.3,286047000.6,N
1554881895.1,286047000.2,N
1554881915.8,286046999.9,N
1554881935.7,286046999.8,N
1554881955.5,286047002.5,N
1554881975.4,286047002.3,N
1554881995.2,286047000.5,N
1554882015.0,286046998.2,N
1554882015.9,286046998.2,N
1554882035.8,286047000.8,N
1554882055.6,286047002.2,N
1554882075.5,286047000.1,N
1554882095.3,286046998.7,N
1554882115.1,286046998.6,N
1554882135.9,286046998.4,N
1554882155.7,286046998.1,N
1554882175.6,286047000.4,N
1554882195.4,286047001.1,N
1554882215.2,286047000.6,N
1554882235.1,286047000.3,N
1554882236.0,286047000.3,N
1554882255.8,286046999.8,N
1554882275.6,286047002.7,N
1554882295.5,286047000.8,N
1554882315.3,286046999.9,N
1554882335.2,286047001.0,N
1554882355.9,286047001.0,N
1554882375.7,286047001.0,N
1554882395.6,286047000.7,N
1554882415.4,286047002.6,N
1554882435.2,286047002.0,N
1554882455.1,286047001.3,N
1554882456.0,286047001.3,N
1554882475.8,286047001.7,N
1554882495.7,286047004.4,Y
1554882515.5,286047002.2,P
1554882535.3,286046999.7,N
1554882555.2,286047001.0,N
1554882575.0,286047000.2,N
1554882575.9,286047000.2,N
1554882595.7,286047000.5,N
1554882615.6,286047002.6,Y
1554882635.4,286047002.7,P
1554882655.3,286047001.9,N
1554882675.1,286047004.4,P
1554882676.0,286047004.4,Y
1554882695.8,286046999.9,P
1554882715.7,286047001.5,N
1554882735.5,286047000.3,N
1554882755.4,286047001.2,N
1554882775.2,286046998.7,N
1554882795.0,286047001.2,N
1554882795.9,286047001.2,N
1554882815.8,286047000.2,N
1554882835.6,286047000.8,N
1554882855.4,286047001.2,N
1554882875.3,286046999.1,N
1554882895.1,286046998.7,N
1554882915.9,286046999.5,N
1554882935.7,286046996.6,Y
1554882955.5,286046997.1,P
1554882975.4,286046997.0,N
1554882995.2,286046999.0,N
1554883015.0,286046998.9,N
1554883015.9,286046998.9,N
1554883035.8,286046996.7,N
1554883055.6,286046997.8,N
1554883075.5,286046997.1,N
1554883095.3,286046998.3,N
1554883115.1,286047001.1,N
1554883135.9,286046998.5,N
1554883155.7,286046998.2,N
1554883175.5,286046999.4,N
1554883195.4,286046999.3,N
